TimeCST,TemperatureF,Dew PointF,Humidity,Sea Level PressureIn,VisibilityMPH,Wind Direction,Wind SpeedMPH,Gust SpeedMPH,PrecipitationIn,Events,Conditions,WindDirDegrees,DateUTC
12:54 AM,15.1,9.0,77,30.38,10.0,SSE,6.9,-,N/A,,Clear,160,2013-01-15 06:54:00
1:54 AM,14.0,8.1,77,30.38,10.0,SE,5.8,-,N/A,,Clear,140,2013-01-15 07:54:00
3:54 AM,14.0,8.1,77,30.36,10.0,SSE,8.1,-,N/A,,Clear,160,2013-01-15 09:54:00
4:54 AM,12.9,7.0,77,30.34,9.0,South,8.1,-,N/A,,Clear,170,2013-01-15 10:54:00
5:54 AM,12.0,6.1,77,30.33,8.0,SSE,5.8,-,N/A,,Clear,150,2013-01-15 11:54:00
6:54 AM,10.0,5.0,80,30.34,8.0,South,3.5,-,N/A,,Clear,170,2013-01-15 12:54:00
7:54 AM,10.9,6.1,81,30.35,8.0,SE,6.9,-,N/A,,Clear,140,2013-01-15 13:54:00
8:54 AM,16.0,10.0,77,30.35,7.0,SSE,9.2,-,N/A,,Clear,160,2013-01-15 14:54:00
9:54 AM,19.9,12.0,71,30.33,8.0,SSE,8.1,-,N/A,,Clear,160,2013-01-15 15:54:00
10:54 AM,27.0,16.0,63,30.31,10.0,South,10.4,-,N/A,,Clear,180,2013-01-15 16:54:00
11:54 AM,30.0,16.0,56,30.28,10.0,SSW,12.7,-,N/A,,Clear,200,2013-01-15 17:54:00
12:54 PM,32.0,18.0,56,30.23,10.0,South,15.0,-,N/A,,Clear,190,2013-01-15 18:54:00
1:54 PM,33.1,19.0,56,30.21,10.0,SW,16.1,-,N/A,,Clear,220,2013-01-15 19:54:00
2:54 PM,34.0,21.0,59,30.19,10.0,SSW,15.0,-,N/A,,Clear,200,2013-01-15 20:54:00
3:54 PM,34.0,21.0,59,30.17,10.0,South,17.3,-,N/A,,Clear,190,2013-01-15 21:54:00
4:54 PM,32.0,21.0,64,30.17,10.0,South,16.1,-,N/A,,Clear,190,2013-01-15 22:54:00
5:54 PM,28.0,19.9,72,30.17,10.0,South,10.4,-,N/A,,Clear,180,2013-01-15 23:54:00
6:54 PM,25.0,19.0,78,30.16,10.0,South,9.2,-,N/A,,Clear,190,2013-01-16 00:54:00
7:54 PM,24.1,18.0,77,30.15,9.0,SSW,9.2,-,N/A,,Clear,200,2013-01-16 01:54:00
8:54 PM,23.0,17.1,78,30.12,8.0,SSW,9.2,-,N/A,,Clear,200,2013-01-16 02:54:00
9:54 PM,23.0,16.0,74,30.09,9.0,SSW,9.2,-,N/A,,Clear,200,2013-01-16 03:54:00
10:54 PM,23.0,17.1,78,30.06,9.0,SSW,11.5,-,N/A,,Clear,200,2013-01-16 04:54:00